Location: Rodson Ranch
(38.7188°N, 119.3202°W)
Time: 16:54:07
(UTC+00:00)

Cosmos 1023 Rocket - Pass Details

Date: 29 October 2020
Orbit: 736 x 772 km, 74.1° (Epoch: 22 November)

Event Time Altitude Azimuth Distance (km) Brightness Sun altitude
Rises 13:34:53 0° 205° (SSW) 3,159 7.5 -9.7°
Reaches altitude 10° 13:37:15 10° 209° (SSW) 2,237 6.7 -9.2°
Maximum altitude 13:42:16 63° 290° (WNW) 822 4.4 -8.3°
Drops below altitude 10° 13:47:18 10° 12° (NNE) 2,248 6.9 -7.3°
Sets 13:49:42 0° 16° (NNE) 3,176 7.8 -6.9°
